Year,Month,Day,Hour,Minute,Value (Times are PST for temperature in C)
2014,07,21,00,00,15.30
2014,07,21,00,01,15.40
2014,07,21,00,02,15.40
2014,07,21,00,03,15.40
2014,07,21,00,04,15.40
2014,07,21,00,05,15.40
2014,07,21,00,06,15.40
2014,07,21,00,07,15.40
2014,07,21,00,08,15.40
2014,07,21,00,09,15.40
2014,07,21,00,10,15.40
2014,07,21,00,11,15.40
2014,07,21,00,12,15.40
2014,07,21,00,13,15.30
2014,07,21,00,14,15.30
2014,07,21,00,15,15.30
2014,07,21,00,16,15.30
2014,07,21,00,17,15.30
2014,07,21,00,18,15.30
2014,07,21,00,19,15.30
2014,07,21,00,20,15.30
2014,07,21,00,21,15.20
2014,07,21,00,22,15.20
2014,07,21,00,23,15.20
2014,07,21,00,24,15.20
2014,07,21,00,25,15.20
2014,07,21,00,26,15.10
2014,07,21,00,27,15.10
2014,07,21,00,28,15.00
2014,07,21,00,29,15.00
2014,07,21,00,30,15.00
2014,07,21,00,31,15.00
2014,07,21,00,32,15.00
2014,07,21,00,33,15.00
2014,07,21,00,34,15.00
2014,07,21,00,35,15.00
2014,07,21,00,36,15.00
2014,07,21,00,37,15.00
2014,07,21,00,38,15.00
2014,07,21,00,39,15.00
2014,07,21,00,40,15.00
2014,07,21,00,41,15.00
2014,07,21,00,42,15.00
2014,07,21,00,43,15.00
2014,07,21,00,44,14.90
2014,07,21,00,45,14.90
2014,07,21,00,46,14.90
2014,07,21,00,47,14.80
2014,07,21,00,48,14.80
2014,07,21,00,49,14.80
2014,07,21,00,50,14.80
2014,07,21,00,51,14.70
2014,07,21,00,52,14.70
2014,07,21,00,53,14.70
2014,07,21,00,54,14.70
2014,07,21,00,55,14.70
2014,07,21,00,56,14.70
2014,07,21,00,57,14.70
2014,07,21,00,58,14.70
2014,07,21,00,59,14.70
2014,07,21,01,00,14.70
2014,07,21,01,01,14.70
2014,07,21,01,02,14.60
2014,07,21,01,03,14.60
2014,07,21,01,04,14.60
2014,07,21,01,05,14.60
2014,07,21,01,06,14.60
2014,07,21,01,07,14.60
2014,07,21,01,08,14.50
2014,07,21,01,09,14.50
2014,07,21,01,10,14.50
2014,07,21,01,11,14.40
2014,07,21,01,12,14.40
2014,07,21,01,13,14.40
2014,07,21,01,14,14.40
2014,07,21,01,15,14.30
2014,07,21,01,16,14.30
2014,07,21,01,17,14.30
2014,07,21,01,18,14.30
2014,07,21,01,19,14.20
2014,07,21,01,20,14.20
2014,07,21,01,21,14.20
2014,07,21,01,22,14.10
2014,07,21,01,23,14.10
2014,07,21,01,24,14.10
2014,07,21,01,25,14.10
2014,07,21,01,26,14.00
2014,07,21,01,27,14.00
2014,07,21,01,28,13.90
2014,07,21,01,29,13.90
2014,07,21,01,30,13.90
2014,07,21,01,31,13.90
2014,07,21,01,32,13.80
2014,07,21,01,33,13.80
2014,07,21,01,34,13.80
2014,07,21,01,35,13.80
2014,07,21,01,36,13.80
2014,07,21,01,37,13.80
2014,07,21,01,38,13.80
2014,07,21,01,39,13.80
2014,07,21,01,40,13.70
2014,07,21,01,41,13.70
2014,07,21,01,42,13.70
2014,07,21,01,43,13.70
2014,07,21,01,44,13.70
2014,07,21,01,45,13.70
2014,07,21,01,46,13.70
2014,07,21,01,47,13.70
2014,07,21,01,48,13.70
2014,07,21,01,49,13.70
2014,07,21,01,50,13.70
2014,07,21,01,51,13.70
2014,07,21,01,52,13.70
2014,07,21,01,53,13.70
2014,07,21,01,54,13.70
2014,07,21,01,55,13.70
2014,07,21,01,56,13.70
2014,07,21,01,57,13.70
2014,07,21,01,58,13.70
2014,07,21,01,59,13.70
2014,07,21,02,00,13.70
2014,07,21,02,01,13.70
2014,07,21,02,02,13.80
2014,07,21,02,03,13.70
2014,07,21,02,04,13.70
2014,07,21,02,05,13.80
2014,07,21,02,06,13.80
2014,07,21,02,07,13.80
2014,07,21,02,08,13.80
2014,07,21,02,09,13.80
2014,07,21,02,10,13.90
2014,07,21,02,11,13.90
2014,07,21,02,12,13.90
2014,07,21,02,13,13.90
2014,07,21,02,14,13.90
2014,07,21,02,15,13.90
2014,07,21,02,16,13.90
2014,07,21,02,17,13.90
2014,07,21,02,18,13.90
2014,07,21,02,19,13.90
2014,07,21,02,20,13.90
2014,07,21,02,21,14.00
2014,07,21,02,22,14.00
2014,07,21,02,23,14.00
2014,07,21,02,24,14.10
2014,07,21,02,25,14.10
2014,07,21,02,26,14.10
2014,07,21,02,27,14.10
2014,07,21,02,28,14.20
2014,07,21,02,29,14.20
2014,07,21,02,30,14.20
2014,07,21,02,31,14.20
2014,07,21,02,32,14.20
2014,07,21,02,33,14.20
2014,07,21,02,34,14.20
2014,07,21,02,35,14.20
2014,07,21,02,36,14.20
2014,07,21,02,37,14.20
2014,07,21,02,38,14.20
2014,07,21,02,39,14.20
2014,07,21,02,40,14.20
2014,07,21,02,41,14.20
2014,07,21,02,42,14.20
2014,07,21,02,43,14.20
2014,07,21,02,44,14.20
2014,07,21,02,45,14.20
2014,07,21,02,46,14.20
2014,07,21,02,47,14.20
2014,07,21,02,48,14.10
2014,07,21,02,49,14.10
2014,07,21,02,50,14.10
2014,07,21,02,51,14.10
2014,07,21,02,52,14.10
2014,07,21,02,53,14.10
2014,07,21,02,54,14.10
2014,07,21,02,55,14.00
2014,07,21,02,56,14.00
2014,07,21,02,57,14.00
2014,07,21,02,58,14.00
2014,07,21,02,59,14.00
2014,07,21,03,00,14.00
2014,07,21,03,01,14.00
2014,07,21,03,02,13.90
2014,07,21,03,03,13.90
2014,07,21,03,04,14.00
2014,07,21,03,05,14.00
2014,07,21,03,06,14.00
2014,07,21,03,07,14.00
2014,07,21,03,08,14.00
2014,07,21,03,09,14.00
2014,07,21,03,10,14.00
2014,07,21,03,11,14.00
2014,07,21,03,12,14.00
2014,07,21,03,13,14.00
2014,07,21,03,14,13.90
2014,07,21,03,15,13.90
2014,07,21,03,16,13.90
2014,07,21,03,17,13.90
2014,07,21,03,18,13.90
2014,07,21,03,19,13.80
2014,07,21,03,20,13.80
2014,07,21,03,21,13.80
2014,07,21,03,22,13.80
2014,07,21,03,23,13.80
2014,07,21,03,24,13.70
2014,07,21,03,25,13.70
2014,07,21,03,26,13.70
2014,07,21,03,27,13.70
2014,07,21,03,28,13.70
2014,07,21,03,29,13.60
2014,07,21,03,30,13.60
2014,07,21,03,31,13.60
2014,07,21,03,32,13.60
2014,07,21,03,33,13.60
2014,07,21,03,34,13.60
2014,07,21,03,35,13.50
2014,07,21,03,36,13.50
2014,07,21,03,37,13.50
2014,07,21,03,38,13.40
2014,07,21,03,39,13.40
2014,07,21,03,40,13.40
2014,07,21,03,41,13.40
2014,07,21,03,42,13.40
2014,07,21,03,43,13.40
2014,07,21,03,44,13.30
2014,07,21,03,45,13.30
2014,07,21,03,46,13.30
2014,07,21,03,47,13.30
2014,07,21,03,48,13.30
2014,07,21,03,49,13.20
2014,07,21,03,50,13.20
2014,07,21,03,51,13.20
2014,07,21,03,52,13.20
2014,07,21,03,53,13.10
2014,07,21,03,54,13.10
2014,07,21,03,55,13.10
2014,07,21,03,56,13.00
2014,07,21,03,57,13.00
2014,07,21,03,58,13.00
2014,07,21,03,59,12.90
2014,07,21,04,00,12.90
2014,07,21,04,01,12.90
2014,07,21,04,02,12.80
2014,07,21,04,03,12.80
2014,07,21,04,04,12.80
2014,07,21,04,05,12.80
2014,07,21,04,06,12.80
2014,07,21,04,07,12.80
2014,07,21,04,08,12.70
2014,07,21,04,09,12.80
2014,07,21,04,10,12.80
2014,07,21,04,11,12.80
2014,07,21,04,12,12.80
2014,07,21,04,13,12.80
2014,07,21,04,14,12.80
2014,07,21,04,15,12.80
2014,07,21,04,16,12.80
2014,07,21,04,17,12.80
2014,07,21,04,18,12.80
2014,07,21,04,19,12.80
2014,07,21,04,20,12.70
2014,07,21,04,21,12.70
2014,07,21,04,22,12.70
2014,07,21,04,23,12.70
2014,07,21,04,24,12.70
2014,07,21,04,25,12.70
2014,07,21,04,26,12.60
2014,07,21,04,27,12.60
2014,07,21,04,28,12.60
2014,07,21,04,29,12.60
2014,07,21,04,30,12.60
2014,07,21,04,31,12.50
2014,07,21,04,32,12.50
2014,07,21,04,33,12.50
2014,07,21,04,34,12.50
2014,07,21,04,35,12.50
2014,07,21,04,36,12.60
2014,07,21,04,37,12.60
2014,07,21,04,38,12.60
2014,07,21,04,39,12.70
2014,07,21,04,40,12.70
2014,07,21,04,41,12.80
2014,07,21,04,42,12.80
2014,07,21,04,43,12.80
2014,07,21,04,44,12.80
2014,07,21,04,45,12.80
2014,07,21,04,46,12.80
2014,07,21,04,47,12.80
2014,07,21,04,48,12.80
2014,07,21,04,49,12.80
2014,07,21,04,50,12.80
2014,07,21,04,51,12.80
2014,07,21,04,52,12.80
2014,07,21,04,53,12.80
2014,07,21,04,54,12.80
2014,07,21,04,55,12.80
2014,07,21,04,56,12.80
2014,07,21,04,57,12.80
2014,07,21,04,58,12.80
2014,07,21,04,59,12.80
2014,07,21,05,00,12.80
2014,07,21,05,01,12.80
2014,07,21,05,02,12.80
2014,07,21,05,03,12.80
2014,07,21,05,04,12.80
2014,07,21,05,05,12.80
2014,07,21,05,06,12.80
2014,07,21,05,07,12.80
2014,07,21,05,08,12.80
2014,07,21,05,09,12.80
2014,07,21,05,10,12.80
2014,07,21,05,11,12.80
2014,07,21,05,12,12.80
2014,07,21,05,13,12.80
2014,07,21,05,14,12.80
2014,07,21,05,15,12.80
2014,07,21,05,16,12.70
2014,07,21,05,17,12.70
2014,07,21,05,18,12.70
2014,07,21,05,19,12.70
2014,07,21,05,20,12.70
2014,07,21,05,21,12.70
2014,07,21,05,22,12.70
2014,07,21,05,23,12.70
2014,07,21,05,24,12.70
2014,07,21,05,25,12.70
2014,07,21,05,26,12.70
2014,07,21,05,27,12.70
2014,07,21,05,28,12.70
2014,07,21,05,29,12.70
2014,07,21,05,30,12.70
2014,07,21,05,31,12.70
2014,07,21,05,32,12.70
2014,07,21,05,33,12.70
2014,07,21,05,34,12.70
2014,07,21,05,35,12.70
2014,07,21,05,36,12.70
2014,07,21,05,37,12.70
2014,07,21,05,38,12.70
2014,07,21,05,39,12.70
2014,07,21,05,40,12.70
2014,07,21,05,41,12.70
2014,07,21,05,42,12.70
2014,07,21,05,43,12.60
2014,07,21,05,44,12.60
2014,07,21,05,45,12.60
2014,07,21,05,46,12.60
2014,07,21,05,47,12.60
2014,07,21,05,48,12.60
2014,07,21,05,49,12.60
2014,07,21,05,50,12.60
2014,07,21,05,51,12.60
2014,07,21,05,52,12.50
2014,07,21,05,53,12.50
2014,07,21,05,54,12.50
2014,07,21,05,55,12.50
2014,07,21,05,56,12.50
2014,07,21,05,57,12.40
2014,07,21,05,58,12.40
2014,07,21,05,59,12.40
2014,07,21,06,00,12.40
2014,07,21,06,01,12.40
2014,07,21,06,02,12.30
2014,07,21,06,03,12.30
2014,07,21,06,04,12.30
2014,07,21,06,05,12.30
2014,07,21,06,06,12.30
2014,07,21,06,07,12.30
2014,07,21,06,08,12.30
2014,07,21,06,09,12.30
2014,07,21,06,10,12.30
2014,07,21,06,11,12.30
2014,07,21,06,12,12.30
2014,07,21,06,13,12.30
2014,07,21,06,14,12.30
2014,07,21,06,15,12.30
2014,07,21,06,16,12.30
2014,07,21,06,17,12.30
2014,07,21,06,18,12.30
2014,07,21,06,19,12.30
2014,07,21,06,20,12.30
2014,07,21,06,21,12.30
2014,07,21,06,22,12.20
2014,07,21,06,23,12.20
2014,07,21,06,24,12.20
2014,07,21,06,25,12.20
2014,07,21,06,26,12.20
2014,07,21,06,27,12.30
2014,07,21,06,28,12.30
2014,07,21,06,29,12.30
2014,07,21,06,30,12.30
2014,07,21,06,31,12.30
2014,07,21,06,32,12.30
2014,07,21,06,33,12.30
2014,07,21,06,34,12.30
2014,07,21,06,35,12.30
2014,07,21,06,36,12.30
2014,07,21,06,37,12.30
2014,07,21,06,38,12.30
2014,07,21,06,39,12.30
2014,07,21,06,40,12.30
2014,07,21,06,41,12.30
2014,07,21,06,42,12.30
2014,07,21,06,43,12.30
2014,07,21,06,44,12.30
2014,07,21,06,45,12.30
2014,07,21,06,46,12.20
2014,07,21,06,47,12.20
2014,07,21,06,48,12.20
2014,07,21,06,49,12.20
2014,07,21,06,50,12.20
2014,07,21,06,51,12.20
2014,07,21,06,52,12.20
2014,07,21,06,53,12.30
2014,07,21,06,54,12.30
2014,07,21,06,55,12.30
2014,07,21,06,56,12.30
2014,07,21,06,57,12.40
2014,07,21,06,58,12.40
2014,07,21,06,59,12.50
2014,07,21,07,00,12.60
2014,07,21,07,01,12.60
2014,07,21,07,02,12.60
2014,07,21,07,03,12.70
2014,07,21,07,04,12.70
2014,07,21,07,05,12.80
2014,07,21,07,06,12.80
2014,07,21,07,07,12.80
2014,07,21,07,08,12.80
2014,07,21,07,09,12.90
2014,07,21,07,10,12.90
2014,07,21,07,11,13.00
2014,07,21,07,12,13.00
2014,07,21,07,13,13.10
2014,07,21,07,14,13.10
2014,07,21,07,15,13.10
2014,07,21,07,16,13.20
2014,07,21,07,17,13.20
2014,07,21,07,18,13.20
2014,07,21,07,19,13.30
2014,07,21,07,20,13.30
2014,07,21,07,21,13.30
2014,07,21,07,22,13.40
2014,07,21,07,23,13.40
2014,07,21,07,24,13.40
2014,07,21,07,25,13.50
2014,07,21,07,26,13.50
2014,07,21,07,27,13.60
2014,07,21,07,28,13.60
2014,07,21,07,29,13.70
2014,07,21,07,30,13.70
2014,07,21,07,31,13.70
2014,07,21,07,32,13.80
2014,07,21,07,33,13.80
2014,07,21,07,34,13.80
2014,07,21,07,35,13.80
2014,07,21,07,36,13.90
2014,07,21,07,37,13.90
2014,07,21,07,38,13.90
2014,07,21,07,39,14.00
2014,07,21,07,40,14.00
2014,07,21,07,41,14.10
2014,07,21,07,42,14.10
2014,07,21,07,43,14.10
2014,07,21,07,44,14.20
2014,07,21,07,45,14.20
2014,07,21,07,46,14.30
2014,07,21,07,47,14.30
2014,07,21,07,48,14.30
2014,07,21,07,49,14.40
2014,07,21,07,50,14.40
2014,07,21,07,51,14.50
2014,07,21,07,52,14.50
2014,07,21,07,53,14.60
2014,07,21,07,54,14.60
2014,07,21,07,55,14.60
2014,07,21,07,56,14.70
2014,07,21,07,57,14.70
2014,07,21,07,58,14.80
2014,07,21,07,59,14.80
2014,07,21,08,00,14.80
2014,07,21,08,01,14.80
2014,07,21,08,02,15.00
2014,07,21,08,03,15.00
2014,07,21,08,04,15.00
2014,07,21,08,05,15.00
2014,07,21,08,06,15.00
2014,07,21,08,07,15.00
2014,07,21,08,08,15.00
2014,07,21,08,09,15.10
2014,07,21,08,10,15.20
2014,07,21,08,11,15.20
2014,07,21,08,12,15.20
2014,07,21,08,13,15.30
2014,07,21,08,14,15.30
2014,07,21,08,15,15.30
2014,07,21,08,16,15.30
2014,07,21,08,17,15.40
2014,07,21,08,18,15.40
2014,07,21,08,19,15.40
2014,07,21,08,20,15.50
2014,07,21,08,21,15.50
2014,07,21,08,22,15.60
2014,07,21,08,23,15.60
2014,07,21,08,24,15.70
2014,07,21,08,25,15.70
2014,07,21,08,26,15.70
2014,07,21,08,27,15.80
2014,07,21,08,28,15.80
2014,07,21,08,29,15.80
2014,07,21,08,30,15.80
2014,07,21,08,31,15.90
2014,07,21,08,32,15.90
2014,07,21,08,33,15.90
2014,07,21,08,34,15.90
2014,07,21,08,35,15.90
2014,07,21,08,36,15.90
2014,07,21,08,37,15.90
2014,07,21,08,38,15.90
2014,07,21,08,39,16.00
2014,07,21,08,40,16.00
2014,07,21,08,41,16.00
2014,07,21,08,42,16.00
2014,07,21,08,43,16.10
2014,07,21,08,44,16.10
2014,07,21,08,45,16.10
2014,07,21,08,46,16.10
2014,07,21,08,47,16.10
2014,07,21,08,48,16.10
2014,07,21,08,49,16.10
2014,07,21,08,50,16.10
2014,07,21,08,51,16.10
2014,07,21,08,52,16.20
2014,07,21,08,53,16.20
2014,07,21,08,54,16.20
2014,07,21,08,55,16.20
2014,07,21,08,56,16.30
2014,07,21,08,57,16.30
2014,07,21,08,58,16.30
2014,07,21,08,59,16.30
2014,07,21,09,00,16.20
2014,07,21,09,01,16.20
2014,07,21,09,02,16.20
2014,07,21,09,03,16.20
2014,07,21,09,04,16.20
2014,07,21,09,05,16.20
2014,07,21,09,06,16.30
2014,07,21,09,07,16.30
2014,07,21,09,08,16.30
2014,07,21,09,09,16.30
2014,07,21,09,10,16.30
2014,07,21,09,11,16.30
2014,07,21,09,12,16.40
2014,07,21,09,13,16.40
2014,07,21,09,14,16.40
2014,07,21,09,15,16.40
2014,07,21,09,16,16.40
2014,07,21,09,17,16.40
2014,07,21,09,18,16.30
2014,07,21,09,19,16.30
2014,07,21,09,20,16.20
2014,07,21,09,21,16.20
2014,07,21,09,22,16.20
2014,07,21,09,23,16.20
2014,07,21,09,24,16.10
2014,07,21,09,25,16.10
2014,07,21,09,26,16.10
2014,07,21,09,27,16.10
2014,07,21,09,28,16.10
2014,07,21,09,29,16.10
2014,07,21,09,30,16.10
2014,07,21,09,31,16.20
2014,07,21,09,32,16.20
2014,07,21,09,33,16.20
2014,07,21,09,34,16.30
2014,07,21,09,35,16.30
2014,07,21,09,36,16.30
2014,07,21,09,37,16.30
2014,07,21,09,38,16.30
2014,07,21,09,39,16.30
2014,07,21,09,40,16.30
2014,07,21,09,41,16.30
2014,07,21,09,42,16.30
2014,07,21,09,43,16.30
2014,07,21,09,44,16.40
2014,07,21,09,45,16.40
2014,07,21,09,46,16.50
2014,07,21,09,47,16.50
2014,07,21,09,48,16.60
2014,07,21,09,49,16.60
2014,07,21,09,50,16.60
2014,07,21,09,51,16.60
2014,07,21,09,52,16.60
2014,07,21,09,53,16.60
2014,07,21,09,54,16.60
2014,07,21,09,55,16.60
2014,07,21,09,56,16.60
2014,07,21,09,57,16.70
2014,07,21,09,58,16.70
2014,07,21,09,59,16.70
2014,07,21,10,00,16.70
2014,07,21,10,01,16.70
2014,07,21,10,02,16.70
2014,07,21,10,03,16.70
2014,07,21,10,04,16.60
2014,07,21,10,05,16.70
2014,07,21,10,06,16.70
2014,07,21,10,07,16.70
2014,07,21,10,08,16.70
2014,07,21,10,09,16.70
2014,07,21,10,10,16.70
2014,07,21,10,11,16.80
2014,07,21,10,12,16.80
2014,07,21,10,13,16.80
2014,07,21,10,14,16.90
2014,07,21,10,15,17.00
2014,07,21,10,16,17.00
2014,07,21,10,17,17.00
2014,07,21,10,18,17.00
2014,07,21,10,19,17.00
2014,07,21,10,20,17.00
2014,07,21,10,21,17.10
2014,07,21,10,22,17.10
2014,07,21,10,23,17.20
2014,07,21,10,24,17.30
2014,07,21,10,25,17.50
2014,07,21,10,26,17.60
2014,07,21,10,27,17.70
2014,07,21,10,28,17.70
2014,07,21,10,29,17.80
2014,07,21,10,30,17.80
2014,07,21,10,31,17.90
2014,07,21,10,32,17.80
2014,07,21,10,33,17.80
2014,07,21,10,34,17.70
2014,07,21,10,35,17.80
2014,07,21,10,36,17.80
2014,07,21,10,37,17.80
2014,07,21,10,38,17.90
2014,07,21,10,39,17.90
2014,07,21,10,40,18.00
2014,07,21,10,41,18.00
2014,07,21,10,42,18.00
2014,07,21,10,43,17.90
2014,07,21,10,44,18.00
2014,07,21,10,45,18.00
2014,07,21,10,46,18.00
2014,07,21,10,47,18.00
2014,07,21,10,48,18.00
2014,07,21,10,49,18.00
2014,07,21,10,50,18.00
2014,07,21,10,51,18.00
2014,07,21,10,52,18.10
2014,07,21,10,53,18.10
2014,07,21,10,54,18.00
2014,07,21,10,55,17.90
2014,07,21,10,56,17.90
2014,07,21,10,57,18.00
2014,07,21,10,58,18.00
2014,07,21,10,59,18.10
2014,07,21,11,00,18.20
2014,07,21,11,01,18.30
2014,07,21,11,02,18.40
2014,07,21,11,03,18.50
2014,07,21,11,04,18.60
2014,07,21,11,05,18.70
2014,07,21,11,06,18.80
2014,07,21,11,07,18.90
2014,07,21,11,08,18.90
2014,07,21,11,09,18.90
2014,07,21,11,10,18.90
2014,07,21,11,11,18.90
2014,07,21,11,12,19.00
2014,07,21,11,13,19.10
2014,07,21,11,14,19.20
2014,07,21,11,15,19.20
2014,07,21,11,16,19.30
2014,07,21,11,17,19.30
2014,07,21,11,18,19.30
2014,07,21,11,19,19.30
2014,07,21,11,20,19.40
2014,07,21,11,21,19.60
2014,07,21,11,22,19.70
2014,07,21,11,23,19.90
2014,07,21,11,24,20.00
2014,07,21,11,25,19.90
2014,07,21,11,26,19.90
2014,07,21,11,27,19.80
2014,07,21,11,28,19.80
2014,07,21,11,29,19.80
2014,07,21,11,30,19.70
2014,07,21,11,31,19.70
2014,07,21,11,32,19.70
2014,07,21,11,33,19.60
2014,07,21,11,34,19.50
2014,07,21,11,35,19.30
2014,07,21,11,36,19.10
2014,07,21,11,37,19.00
2014,07,21,11,38,19.00
2014,07,21,11,39,19.00
2014,07,21,11,40,19.10
2014,07,21,11,41,19.10
2014,07,21,11,42,19.20
2014,07,21,11,43,19.20
2014,07,21,11,44,19.10
2014,07,21,11,45,19.10
2014,07,21,11,46,19.10
2014,07,21,11,47,19.10
2014,07,21,11,48,19.10
2014,07,21,11,49,19.10
2014,07,21,11,50,19.10
2014,07,21,11,51,19.10
2014,07,21,11,52,19.10
2014,07,21,11,53,19.10
2014,07,21,11,54,19.10
2014,07,21,11,55,19.10
2014,07,21,11,56,19.10
2014,07,21,11,57,19.10
2014,07,21,11,58,19.10
2014,07,21,11,59,19.20
2014,07,21,12,00,19.30
2014,07,21,12,01,19.30
2014,07,21,12,02,19.40
2014,07,21,12,03,19.40
2014,07,21,12,04,19.50
2014,07,21,12,05,19.60
2014,07,21,12,06,19.70
2014,07,21,12,07,19.70
2014,07,21,12,08,19.60
2014,07,21,12,09,19.60
2014,07,21,12,10,19.70
2014,07,21,12,11,19.80
2014,07,21,12,12,19.80
2014,07,21,12,13,19.80
2014,07,21,12,14,19.80
2014,07,21,12,15,19.70
2014,07,21,12,16,19.60
2014,07,21,12,17,19.50
2014,07,21,12,18,19.50
2014,07,21,12,19,19.60
2014,07,21,12,20,19.60
2014,07,21,12,21,19.50
2014,07,21,12,22,19.40
2014,07,21,12,23,19.50
2014,07,21,12,24,19.50
2014,07,21,12,25,19.50
2014,07,21,12,26,19.60
2014,07,21,12,27,19.70
2014,07,21,12,28,19.70
2014,07,21,12,29,19.70
2014,07,21,12,30,19.80
2014,07,21,12,31,19.90
2014,07,21,12,32,19.90
2014,07,21,12,33,20.00
2014,07,21,12,34,20.10
2014,07,21,12,35,20.10
2014,07,21,12,36,20.20
2014,07,21,12,37,20.10
2014,07,21,12,38,20.10
2014,07,21,12,39,20.10
2014,07,21,12,40,20.10
2014,07,21,12,41,20.00
2014,07,21,12,42,19.90
2014,07,21,12,43,19.90
2014,07,21,12,44,19.80
2014,07,21,12,45,19.80
2014,07,21,12,46,19.70
2014,07,21,12,47,19.70
2014,07,21,12,48,19.80
2014,07,21,12,49,20.00
2014,07,21,12,50,20.10
2014,07,21,12,51,20.20
2014,07,21,12,52,20.30
2014,07,21,12,53,20.30
2014,07,21,12,54,20.40
2014,07,21,12,55,20.50
2014,07,21,12,56,20.60
2014,07,21,12,57,20.70
2014,07,21,12,58,20.80
2014,07,21,12,59,20.90
2014,07,21,13,00,21.00
2014,07,21,13,01,21.20
2014,07,21,13,02,21.20
2014,07,21,13,03,21.20
2014,07,21,13,04,21.10
2014,07,21,13,05,21.00
2014,07,21,13,06,20.90
2014,07,21,13,07,20.70
2014,07,21,13,08,20.70
2014,07,21,13,09,20.50
2014,07,21,13,10,20.40
2014,07,21,13,11,20.30
2014,07,21,13,12,20.20
2014,07,21,13,13,20.20
2014,07,21,13,14,20.20
2014,07,21,13,15,20.20
2014,07,21,13,16,20.40
2014,07,21,13,17,20.50
2014,07,21,13,18,20.60
2014,07,21,13,19,20.60
2014,07,21,13,20,20.60
2014,07,21,13,21,20.50
2014,07,21,13,22,20.40
2014,07,21,13,23,20.30
2014,07,21,13,24,20.20
2014,07,21,13,25,20.00
2014,07,21,13,26,19.90
2014,07,21,13,27,19.80
2014,07,21,13,28,19.80
2014,07,21,13,29,19.80
2014,07,21,13,30,19.90
2014,07,21,13,31,20.00
2014,07,21,13,32,20.10
2014,07,21,13,33,20.10
2014,07,21,13,34,20.10
2014,07,21,13,35,20.10
2014,07,21,13,36,20.00
2014,07,21,13,37,20.00
2014,07,21,13,38,19.90
2014,07,21,13,39,19.80
2014,07,21,13,40,19.70
2014,07,21,13,41,19.70
2014,07,21,13,42,19.80
2014,07,21,13,43,19.90
2014,07,21,13,44,19.90
2014,07,21,13,45,20.00
2014,07,21,13,46,20.00
2014,07,21,13,47,20.00
2014,07,21,13,48,20.10
2014,07,21,13,49,20.00
2014,07,21,13,50,20.00
2014,07,21,13,51,20.10
2014,07,21,13,52,20.10
2014,07,21,13,53,20.10
2014,07,21,13,54,20.00
2014,07,21,13,55,19.90
2014,07,21,13,56,19.90
2014,07,21,13,57,19.80
2014,07,21,13,58,19.80
2014,07,21,13,59,19.70
2014,07,21,14,00,19.80
2014,07,21,14,01,19.80
2014,07,21,14,02,19.70
2014,07,21,14,03,19.70
2014,07,21,14,04,19.70
2014,07,21,14,05,19.70
2014,07,21,14,06,19.80
2014,07,21,14,07,19.80
2014,07,21,14,08,19.90
2014,07,21,14,09,19.80
2014,07,21,14,10,19.80
2014,07,21,14,11,19.80
2014,07,21,14,12,19.80
2014,07,21,14,13,19.80
2014,07,21,14,14,19.80
2014,07,21,14,15,19.90
2014,07,21,14,16,20.00
2014,07,21,14,17,20.10
2014,07,21,14,18,20.10
2014,07,21,14,19,20.10
2014,07,21,14,20,20.10
2014,07,21,14,21,20.10
2014,07,21,14,22,20.10
2014,07,21,14,23,20.10
2014,07,21,14,24,20.10
2014,07,21,14,25,20.00
2014,07,21,14,26,20.10
2014,07,21,14,27,20.10
2014,07,21,14,28,20.10
2014,07,21,14,29,20.10
2014,07,21,14,30,20.20
2014,07,21,14,31,20.10
2014,07,21,14,32,20.10
2014,07,21,14,33,20.20
2014,07,21,14,34,20.20
2014,07,21,14,35,20.20
2014,07,21,14,36,20.20
2014,07,21,14,37,20.20
2014,07,21,14,38,20.30
2014,07,21,14,39,20.40
2014,07,21,14,40,20.50
2014,07,21,14,41,20.50
2014,07,21,14,42,20.60
2014,07,21,14,43,20.70
2014,07,21,14,44,20.80
2014,07,21,14,45,20.80
2014,07,21,14,46,20.80
2014,07,21,14,47,20.80
2014,07,21,14,48,20.80
2014,07,21,14,49,20.70
2014,07,21,14,50,20.70
2014,07,21,14,51,20.60
2014,07,21,14,52,20.60
2014,07,21,14,53,20.50
2014,07,21,14,54,20.60
2014,07,21,14,55,20.60
2014,07,21,14,56,20.60
2014,07,21,14,57,20.60
2014,07,21,14,58,20.50
2014,07,21,14,59,20.50
2014,07,21,15,00,20.40
2014,07,21,15,01,20.30
2014,07,21,15,02,20.30
2014,07,21,15,03,20.30
2014,07,21,15,04,20.30
2014,07,21,15,05,20.30
2014,07,21,15,06,20.30
2014,07,21,15,07,20.30
2014,07,21,15,08,20.30
2014,07,21,15,09,20.40
2014,07,21,15,10,20.30
2014,07,21,15,11,20.30
2014,07,21,15,12,20.30
2014,07,21,15,13,20.30
2014,07,21,15,14,20.30
2014,07,21,15,15,20.30
2014,07,21,15,16,20.30
2014,07,21,15,17,20.40
2014,07,21,15,18,20.50
2014,07,21,15,19,20.50
2014,07,21,15,20,20.50
2014,07,21,15,21,20.40
2014,07,21,15,22,20.40
2014,07,21,15,23,20.40
2014,07,21,15,24,20.50
2014,07,21,15,25,20.50
2014,07,21,15,26,20.50
2014,07,21,15,27,20.50
2014,07,21,15,28,20.60
2014,07,21,15,29,20.70
2014,07,21,15,30,20.80
2014,07,21,15,31,20.90
2014,07,21,15,32,20.80
2014,07,21,15,33,20.80
2014,07,21,15,34,20.70
2014,07,21,15,35,20.80
2014,07,21,15,36,20.80
2014,07,21,15,37,20.80
2014,07,21,15,38,20.80
2014,07,21,15,39,20.80
2014,07,21,15,40,20.80
2014,07,21,15,41,20.80
2014,07,21,15,42,20.80
2014,07,21,15,43,20.80
2014,07,21,15,44,20.80
2014,07,21,15,45,20.80
2014,07,21,15,46,20.80
2014,07,21,15,47,20.80
2014,07,21,15,48,20.90
2014,07,21,15,49,20.90
2014,07,21,15,50,20.90
2014,07,21,15,51,20.80
2014,07,21,15,52,20.80
2014,07,21,15,53,20.90
2014,07,21,15,54,21.00
2014,07,21,15,55,21.00
2014,07,21,15,56,21.10
2014,07,21,15,57,21.10
2014,07,21,15,58,21.10
2014,07,21,15,59,21.10
2014,07,21,16,00,21.00
2014,07,21,16,01,20.90
2014,07,21,16,02,20.90
2014,07,21,16,03,20.90
2014,07,21,16,04,20.80
2014,07,21,16,05,20.80
2014,07,21,16,06,20.80
2014,07,21,16,07,20.90
2014,07,21,16,08,21.00
2014,07,21,16,09,21.00
2014,07,21,16,10,21.00
2014,07,21,16,11,20.90
2014,07,21,16,12,20.90
2014,07,21,16,13,20.80
2014,07,21,16,14,20.90
2014,07,21,16,15,21.00
2014,07,21,16,16,21.10
2014,07,21,16,17,21.10
2014,07,21,16,18,21.00
2014,07,21,16,19,20.90
2014,07,21,16,20,21.00
2014,07,21,16,21,21.00
2014,07,21,16,22,21.10
2014,07,21,16,23,21.00
2014,07,21,16,24,21.00
2014,07,21,16,25,21.00
2014,07,21,16,26,20.90
2014,07,21,16,27,20.80
2014,07,21,16,28,20.80
2014,07,21,16,29,20.80
2014,07,21,16,30,20.80
2014,07,21,16,31,20.80
2014,07,21,16,32,20.70
2014,07,21,16,33,20.80
2014,07,21,16,34,20.80
2014,07,21,16,35,20.80
2014,07,21,16,36,20.90
2014,07,21,16,37,20.90
2014,07,21,16,38,20.90
2014,07,21,16,39,20.90
2014,07,21,16,40,20.90
2014,07,21,16,41,20.80
2014,07,21,16,42,20.90
2014,07,21,16,43,20.90
2014,07,21,16,44,20.90
2014,07,21,16,45,20.90
2014,07,21,16,46,20.80
2014,07,21,16,47,20.80
2014,07,21,16,48,20.70
2014,07,21,16,49,20.70
2014,07,21,16,50,20.70
2014,07,21,16,51,20.70
2014,07,21,16,52,20.70
2014,07,21,16,53,20.70
2014,07,21,16,54,20.80
2014,07,21,16,55,20.80
2014,07,21,16,56,20.80
2014,07,21,16,57,20.90
2014,07,21,16,58,20.90
2014,07,21,16,59,21.00
2014,07,21,17,00,21.00
2014,07,21,17,01,21.10
2014,07,21,17,02,21.00
2014,07,21,17,03,21.00
2014,07,21,17,04,21.00
2014,07,21,17,05,20.90
2014,07,21,17,06,21.00
2014,07,21,17,07,21.00
2014,07,21,17,08,20.90
2014,07,21,17,09,20.80
2014,07,21,17,10,20.80
2014,07,21,17,11,20.70
2014,07,21,17,12,20.70
2014,07,21,17,13,20.70
2014,07,21,17,14,20.70
2014,07,21,17,15,20.70
2014,07,21,17,16,20.70
2014,07,21,17,17,20.70
2014,07,21,17,18,20.80
2014,07,21,17,19,20.80